Torna al catalogo

STARLINK-30853

AttivoComunicazioniVLEO
NORAD 58236·PAYLOAD·🇺🇸 United States

Lanciato Nov 8, 2023 da Cape Canaveral Space Force Station

Loading…

Prossimi Passaggi (prossime 24 ore)

TLE

AggiornatoSource: CelesTrak SupGP

Epoca: Sep 14, 2026, 14:44 UTC

1 58236C 23171G   26257.61437500  .00048085  00000+0  17412-2 0  2574
2 58236  43.0008 298.5842 0001533 272.3302 125.2407 15.27562071    18

Traccia STARLINK-30853 in tempo reale con AllMySat

Download on the App Store